Regional Weather Roundup
Issued by NWS Grand Forks, ND

Home | Current Version | Previous Version | Graphics & Text | Print | Product List | Glossary On
Versions: 1 2 3 4 5 6 7 8 9 10 11 12 13 14 15 16 17 18 19 20 21 22 23 24 25 26 27 28 29 30 31 32 33 34 35 36 37 38 39 40 41 42 43 44 45 46 47 48 49 50
000
ASUS43 KFGF 262210
RWRFGF
PRAIRIE TO PINES  WEATHER ROUNDUP
NATIONAL WEATHER SERVICE EASTERN NORTH DAKOTA/GRAND FORKS ND
500 PM CDT FRI MAY 26 2017

 **SATELLITE DATA USED TO AUGMENT SKY COVER AT AUTOMATED STATIONS**
 *****  WEATHER ACROSS EASTERN NORTH DAKOTA  *****

CITY           SKY/WX    TMP DP  RH WIND       PRES   REMARKS
GRAND FORKS    FAIR      70  46  42 W17       29.69S
GRAND FRKS AFB CLOUDY    67  45  44 W17G24    29.71R
DEVILS LAKE    PTSUNNY   64  42  44 W21G26    29.72R
FARGO          FAIR      71  44  37 W15G30    29.73R
WAHPETON ARPT  FAIR      68  41  37 NW17G25   29.76R
$$

 ***** WEATHER ACROSS CENTRAL AND WESTERN NORTH DAKOTA  *****

CITY           SKY/WX    TMP DP  RH WIND       PRES   REMARKS
BISMARCK       CLOUDY    67  41  38 NW13      29.79S
MINOT          PTSUNNY   67  38  34 W20G31    29.72S
JAMESTOWN      CLOUDY    64  42  44 W16G24    29.76R
MINOT AFB      PTSUNNY   66  38  36 NW18G25   29.71S
GARRISON         N/A     64  35  34 NW21G33   29.76R
WILLISTON      FAIR      69  33  26 NW20G29   29.77S
DICKINSON      FAIR      65  31  28 NW14G26   29.80S
HETTINGER      PTSUNNY   66  35  31 W13G23    29.86R
$$

 *****  OTHER AIRPORT OBSERVATIONS IN OUR AREA  *****

CITY           SKY/WX    TMP DP  RH WIND       PRES   REMARKS
WALHALLA       NOT AVBL
GRAFTON AIRPOR FAIR      66  48  52 W17       29.69R
VALLEY CITY AR CLOUDY    64  43  45 W16G22    29.77S
CANDO          NOT AVBL
CAVALIER APRT  MOCLDY    66  45  45 W13       29.65S
GWINNER        PTCLDY    66  45  45 MISG      29.78R
SHEYENNE NWR     N/A     67  43  41 W13       29.95S
ROLLA          CLOUDY    59  43  55 W18       29.70S
 ***** THE ABOVE OBSERVATIONS ARE NON NWS ARE NOT QUALITY
       CONTROLLED AND MAY MIS-REPORT RAIN FOR SNOW...
$$

  *****  WEATHER ACROSS NORTHERN MINNESOTA  *****

CITY           SKY/WX    TMP DP  RH WIND       PRES   REMARKS
FLAG ISLAND    PTSUNNY   66  46  48 SW17      29.61R
WARROAD        FAIR      70  50  49 W16G23    29.64S
ROSEAU         FAIR      70  48  46 W14G21    29.65R
HALLOCK        PTSUNNY   66  45  45 W15       29.65S
THF RVR FALLS  PTSUNNY   68  43  40 W20G26    29.70R
BAUDETTE       FAIR      74  44  34 W17       29.63R
WASKISH        CLOUDY    70  52  52 W10G17    29.66S
CROOKSTON      PTSUNNY   68  45  42 W20G26    29.71R
STEPHEN NDAWN    N/A     66  45  45 W12         N/A
GREENBUSH NDAW   N/A     66  45  45 SW15        N/A
$$
  *****  WEATHER ACROSS CENTRAL AND WEST MINNESOTA  *****

CITY           SKY/WX    TMP DP  RH WIND       PRES   REMARKS
FOSSTON        FAIR      70  43  37 SW15G24   29.70S
BEMIDJI        PTSUNNY   71  45  39 W12       29.68S
PARK RAPIDS    LGT RAIN  73  43  33 W13G21    29.70S
ELBOW LAKE     FAIR      70  45  39 W17G26    29.76R
WADENA         FAIR      72  45  37 SW15      29.72R
DETROIT LAKES  FAIR      68  43  40 W12       29.74S
MOORHEAD       FAIR      70  39  32 W18G28    29.74R
FERGUS FALLS   FAIR      70  45  40 NW18G25   29.72S
MORRIS MN      FAIR      73  46  38 W15G24    29.75R
STAPLES        PTSUNNY   72  43  35 SW8       29.72S
$$
  *****  WEATHER ELSEWHERE ACROSS MINNESOTA  *****

CITY           SKY/WX    TMP DP  RH WIND       PRES   REMARKS
DULUTH         FAIR      62  52  69 SE6       29.70S
INTRNTL FALLS  FAIR      75  41  29 W10G28    29.63R
ELY            TSTM      57  54  88 W12G44    29.71R
CLOQUET        FAIR      66  50  55 SE7       29.69S
WHEATON        FAIR      72  39  30 W13G22    29.78R
BRAINERD       FAIR      73  45  36 W13       29.71R
HIBBING        FAIR      72  53  51 W6        29.65F
ALEXANDRIA     FAIR      71  45  39 W16       29.76R
SAINT CLOUD    FAIR      74  50  42 W13       29.72S
MINNEAPOLIS    PTSUNNY   78  54  43 SW9       29.72S
$$

  *****  WEATHER ACROSS SOUTH DAKOTA  *****

CITY           SKY/WX    TMP DP  RH WIND       PRES   REMARKS
SIOUX FALLS    FAIR      73  47  39 NW9       29.82S
BROOKINGS      FAIR      70  44  39 W16G24    29.81S
WATERTOWN      FAIR      70  43  37 NW14G21   29.79R
HURON          FAIR      75  42  30 NW13G28   29.80S
SISSETON         N/A     71  44  37 NW16G25   29.76S
ABERDEEN       FAIR      71  40  32 NW14G24   29.80R
MITCHELL       FAIR      76  38  25 NW12G26   29.82F
PIERRE         FAIR      72  36  26 NW13G21   29.82F
MOBRIDGE       FAIR      72  39  30 NW15G26   29.78S
RAPID CITY     CLOUDY    62  38  40 S9        29.89F
$$

  *****  SOME WEATHER IN NEARBY STATES *****

CITY           SKY/WX    TMP DP  RH WIND       PRES   REMARKS
GLASGOW MT     CLOUDY    66  30  26 NW12G17   29.82S
GREAT FALLS MT FAIR      62  35  36 SW6       29.91S
CHEYENNE WY    LGT RAIN  55  49  80 S18G31    29.88F
SCOTTSBLUFF NE LGT RAIN  62  42  47 NE8       29.90R
OMAHA NE       FAIR      80  51  36 N12       29.80S
DES MOINES IA  FAIR      82  59  45 MISG      29.77R
DAVENPORT IA   CLOUDY    66  61  84 NE8       29.79R
CHICAGO IL     RAIN      58  54  86 NE14      29.79F FOG
EAU CLAIRE WI  PTSUNNY   71  56  58 S12       29.76S
LA CROSSE WI   FAIR      72  56  57 S9        29.78F
$$

  *****  SOME NATIONAL WEATHER *****

CITY           SKY/WX    TMP DP  RH WIND       PRES   REMARKS
LA GUARDIA NY  FAIR      76  52  43 W14       29.63R
RALEIGH NC     FAIR      79  56  45 W9        29.90S
ATLANTA GA     FAIR      83  59  44 SW10      29.99F
NEW ORLEANS LA FAIR      84  64  50 S12       29.99S
OKLAHOMA CITY  PTSUNNY   89  65  44 N5        29.75S HX  91
ALBUQUERQUE NM PTSUNNY   82   9   6 VRB3      29.91F
SALT LAKE CITY FAIR      68  33  27 N14G20    29.91R
LOS ANGELES CA FAIR      68  51  54 W15       29.99F
BOISE ID       FAIR      70  39  32 W14G22    29.91S
SEATTLE WA     FAIR      78  48  34 N10       29.96F
$$

*** WEATHER ACROSS MANITOBA...SASKATCHEWAN AND ONTARIO ***
                ***ONTARIO***

CITY           SKY/WX    TMP DP  RH WIND       PRES   REMARKS
GERALDTON      PTSUNNY   72  48  43 S10G18    29.76R
THUNDER BAY    LGT RAIN  55  48  76 E9        29.77S
SIOUX LOOKOUT  TSTM      54  52  94 SE7       29.66S
TORONTO        LGT RAIN  61  55  82 NW7       29.79R
BIG TROUT LK     N/A     59  48  67 S10       29.64F
PICKLE LAKE    LGT RAIN  64  52  63 S16G22    29.68S
DRYDEN         SUNNY     63  54  72 S12       29.63S
KENORA         MOSUNNY   70  45  40 SW13G21   29.62S
$$
                *** MANITOBA***

CITY           SKY/WX    TMP DP  RH WIND       PRES   REMARKS
BRANDON        PTSUNNY   63  46  55 W17G24    29.64R
DAUPHIN        CLOUDY    64  46  52 W22G29    29.57R
ISLAND LAKE    NOT AVBL
PILOT MOUND      N/A     61  43  51 W14G23      N/A
THE PAS        LGT RAIN  55  52  88 NW12      29.45R
THOMPSON       LGT RAIN  57  55  94 N5        29.44S
WINNIPEG       PTSUNNY   66  46  48 W13       29.60S
LYNN LAKE      LGT RAIN  52  50  93 NE7       29.54R
CHURCHILL      CLOUDY    37  34  87 NE17      29.68S
GILLAM         PTSUNNY   66  50  55 E10G20    29.52S
$$
                ***SASKATCHEWAN***

CITY           SKY/WX    TMP DP  RH WIND       PRES   REMARKS
ESTEVAN        PTSUNNY   68  37  32 W21G29    29.70S
KINDERSLEY     PTSUNNY   63  43  48 NE15G25   29.74R
LLOYDMINSTER   PTSUNNY   66  39  37 N14G24    29.70S
PRINCE ALBERT  PTSUNNY   63  37  39 N15       29.62R
REGINA         PTSUNNY   64  36  34 NW26      29.68R
YORKTON          N/A     59  45  58 W21G29    29.62R
N. BATTLEFORD  MOSUNNY   66  37  34 NW21G29   29.69S
LA RONGE       CLOUDY    57  46  67 NW12G20   29.60R
SASKATOON      MOSUNNY   68  36  30 NW22G35   29.66S
SWIFT CURRENT  PTSUNNY   61  37  41 NW12G21   29.77F
$$
NOTE: THESE ARE AUTOMATED STATIONS WITH LIMITED QUALITY CONTROL
      "FAIR" INDICATES FEW OR NO CLOUDS BELOW 12,000 FEET WITH NO
      SIGNIFICANT WEATHER AND/OR OBSTRUCTIONS TO VISIBILITY.
      SKY/WX - SKY CONDITION AND SIGNIFICANT WEATHER.
      TMP - AIR TEMPERATURE.    DP   - DEWPOINT TEMPERATURE.
      RH  - RELATIVE HUMIDITY.  PRES - PRESSURE.
      HX  - HEAT INDEX.         WCI  - WIND CHILL INDEX.
$




USA.gov is the U.S. government's official web portal to all federal, state and local government web resources and services.